TimeEDT,TemperatureF,Dew PointF,Humidity,Sea Level PressureIn,VisibilityMPH,Wind Direction,Wind SpeedMPH,Gust SpeedMPH,PrecipitationIn,Events,Conditions,WindDirDegrees,DateUTC
12:53 AM,64.0,50.0,60,30.19,10.0,ENE,3.5,-,N/A,,Partly Cloudy,60,2013-03-16 04:53:00
1:53 AM,64.0,50.0,60,30.18,10.0,NE,3.5,-,N/A,,Partly Cloudy,50,2013-03-16 05:53:00
2:53 AM,60.1,48.9,67,30.17,10.0,Calm,Calm,-,N/A,,Partly Cloudy,0,2013-03-16 06:53:00
3:53 AM,57.9,48.0,70,30.17,10.0,Calm,Calm,-,N/A,,Partly Cloudy,0,2013-03-16 07:53:00
4:53 AM,57.9,48.9,72,30.16,8.0,NNW,3.5,-,N/A,,Scattered Clouds,340,2013-03-16 08:53:00
5:53 AM,59.0,51.1,75,30.16,10.0,NNW,4.6,-,N/A,,Scattered Clouds,330,2013-03-16 09:53:00
6:53 AM,57.0,50.0,77,30.18,10.0,Calm,Calm,-,N/A,,Partly Cloudy,0,2013-03-16 10:53:00
7:53 AM,59.0,52.0,78,30.20,10.0,Calm,Calm,-,N/A,,Partly Cloudy,0,2013-03-16 11:53:00
8:53 AM,64.0,54.0,70,30.20,10.0,Calm,Calm,-,N/A,,Partly Cloudy,0,2013-03-16 12:53:00
9:53 AM,70.0,50.0,49,30.21,10.0,NNW,4.6,-,N/A,,Scattered Clouds,340,2013-03-16 13:53:00
10:53 AM,72.0,51.1,48,30.21,10.0,NW,3.5,-,N/A,,Scattered Clouds,320,2013-03-16 14:53:00
11:53 AM,73.9,53.1,48,30.20,10.0,Variable,5.8,-,N/A,,Scattered Clouds,0,2013-03-16 15:53:00
12:53 PM,72.0,51.1,48,30.18,10.0,Variable,6.9,-,N/A,,Scattered Clouds,0,2013-03-16 16:53:00
1:53 PM,73.0,51.1,46,30.17,10.0,SE,6.9,16.1,N/A,,Scattered Clouds,130,2013-03-16 17:53:00
2:53 PM,75.0,52.0,44,30.14,10.0,ESE,11.5,-,N/A,,Scattered Clouds,120,2013-03-16 18:53:00
3:53 PM,73.0,51.1,46,30.12,10.0,ESE,9.2,17.3,N/A,,Scattered Clouds,110,2013-03-16 19:53:00
4:53 PM,72.0,50.0,46,30.11,10.0,ESE,8.1,16.1,N/A,,Scattered Clouds,110,2013-03-16 20:53:00
5:53 PM,72.0,51.1,48,30.12,10.0,SE,11.5,17.3,N/A,,Scattered Clouds,130,2013-03-16 21:53:00
6:53 PM,70.0,51.1,51,30.12,10.0,SSE,9.2,-,N/A,,Scattered Clouds,150,2013-03-16 22:53:00
7:53 PM,68.0,52.0,56,30.12,10.0,SE,6.9,-,N/A,,Partly Cloudy,140,2013-03-16 23:53:00
8:53 PM,68.0,53.1,59,30.13,10.0,SSE,9.2,-,N/A,,Clear,150,2013-03-17 00:53:00
9:53 PM,68.0,52.0,56,30.14,10.0,Variable,5.8,-,N/A,,Clear,0,2013-03-17 01:53:00
10:53 PM,66.9,53.1,61,30.15,10.0,SE,3.5,-,N/A,,Clear,130,2013-03-17 02:53:00
11:53 PM,66.9,54.0,63,30.15,10.0,ESE,5.8,-,N/A,,Clear,120,2013-03-17 03:53:00